sat.trackr.live / text

‹ back to catalog

STARLINK-6055

NORAD 56467 · 2023-064V

PAYLOAD ACTIVE UNKNOWN

§ Identity

Operator
Country
US
Launch date
2023-05-10
Launch site
AFWTR
Launch vehicle
Mass (kg)
RCS (m²)

Purposes: comms

External: N2YO · Heavens-Above · Gunter

§ Orbital elements

Epoch: 2026-09-20T22:00:03.000096Z

Period
95.52 min
Inclination
70.0001°
Eccentricity
0.0004178
Mean motion
15.07488852 rev/d
Perigee alt
541.0 km
Apogee alt
546.8 km
Semi-major
6,922.0 km
B*
-1.4554e-4
RAAN
352.1579°
Arg perigee
271.6566°
Mean anomaly
101.1050°
Rev number
576

§ Raw data

STARLINK-60551 56467U 23064V   26263.91670139 -.00002314  00000+0 -14554-3 0  99912 56467  70.0001 352.1579 0004178 271.6566 101.1050 15.07488852  5767

JSON: /api/v1/satellites/56467 · /tle

For live sub-satellite position, see the globe view (requires WebGL).

§ Visibility from observer

Set your observer location to see the next 7 days of passes ≥ 10°. The values pass through the URL so the page stays shareable.

No JS? Fill the form by hand. The geolocation button needs JavaScript.